This demonstration page uses our WeatherBlox Daily Observations layout. Learn more.

Left ArrowRight Arrow

Hourly Observations for June 1, 2021

Temp ( °F °C ) Dew Point ( °F °C ) Humidity (%) Winds ( mph kmh ) Pressure ( in mb ) Visibility ( mi km ) Precip ( " mm )
12:53 am 00:53 Clear 62 16.7 58 14.4 86 86 NE 5 7 30.09 1019 10 16 0.00 0.00
1:53 am 01:53 Partly Cloudy 61 16.1 58 14.4 90 90 NNE 5 7 30.08 1019 10 16 0.00 0.00
2:53 am 02:53 Clear 61 16.1 58 14.4 90 90 Calm 30.06 1018 10 16 0.00 0.00
3:53 am 03:53 Clear 60 15.6 58 14.4 93 93 Calm 30.06 1018 10 16 0.00 0.00
4:23 am 04:23 Mostly Cloudy 61 16.1 59 15 93 93 Calm 30.09 1019 10 16 0.00 0.00
4:51 am 04:51 Cloudy 61 16 59 15 94 94 NNE 3 6 30.09 1019 10 16 0.00 0.00
4:53 am 04:53 Cloudy 61 16.1 59 15 93 93 NNE 5 7 30.08 1019 10 16 0.00 0.00
5:53 am 05:53 Cloudy 62 16.7 59 15 90 90 S 3 6 30.07 1018 10 16 0.00 0.00
6:53 am 06:53 Mostly Sunny 61 16.1 59 15 93 93 Calm 30.09 1019 9 14 0.00 0.00
7:53 am 07:53 Partly Cloudy 63 17.2 59 15 87 87 Calm 30.11 1020 10 16 0.00 0.00
8:08 am 08:08 Mostly Cloudy 63 17.2 59 15 87 87 Calm 30.12 1020 10 16 0.00 0.00
8:35 am 08:35 Partly Cloudy 64 17.8 59 15 84 84 NNE 5 7 30.11 1020 10 16 0.00 0.00
8:53 am 08:53 Mostly Cloudy 65 18.3 59 15 81 81 NE 7 11 30.11 1020 10 16 0.00 0.00
9:35 am 09:35 Mostly Cloudy 67 19.4 58 14.4 73 73 Calm 30.10 1019 10 16 0.00 0.00
9:46 am 09:46 Mostly Sunny 66 18.9 58 14.4 75 75 E 3 6 30.11 1020 10 16 0.00 0.00
9:53 am 09:53 Mostly Sunny 66 18.9 58 14.4 75 75 Calm 30.11 1020 10 16 0.00 0.00
10:53 am 10:53 Mostly Sunny 69 20.6 58 14.4 68 68 N 5 7 30.10 1019 10 16 0.00 0.00
11:53 am 11:53 Mostly Sunny 71 21.7 58 14.4 63 63 NE 5 7 30.09 1019 10 16 0.00 0.00
12:53 pm 12:53 Sunny 73 22.8 57 13.9 57 57 Calm 30.06 1018 10 16 0.00 0.00
1:53 pm 13:53 Mostly Sunny 76 24.4 57 13.9 52 52 ESE 8 13 30.04 1017 10 16 0.00 0.00
2:53 pm 14:53 Mostly Sunny 77 25 55 12.8 47 47 Calm 30.02 1017 10 16 0.00 0.00
3:53 pm 15:53 Mostly Sunny 79 26.1 58 14.4 49 49 ESE 14 22 29.98 1015 10 16 0.00 0.00
4:53 pm 16:53 Mostly Sunny 79 26.1 58 14.4 49 49 SE 8 13 29.95 1014 10 16 0.00 0.00
5:53 pm 17:53 Mostly Sunny 79 26.1 58 14.4 49 49 S 10 17 29.92 1013 10 16 0.00 0.00
6:53 pm 18:53 Sunny 78 25.6 57 13.9 48 48 SSE 9 15 29.92 1013 10 16 0.00 0.00
7:53 pm 19:53 Sunny 77 25 57 13.9 50 50 SSE 12 19 29.93 1014 10 16 0.00 0.00
8:53 pm 20:53 Sunny 74 23.3 58 14.4 57 57 S 6 9 29.96 1015 10 16 0.00 0.00
9:53 pm 21:53 Clear 71 21.7 60 15.6 68 68 S 9 15 29.94 1014 10 16 0.00 0.00
10:53 pm 22:53 Clear 71 21.7 59 15 66 66 SE 8 13 29.96 1015 10 16 0.00 0.00
11:53 pm 23:53 Clear 71 21.7 60 15.6 68 68 SSW 6 9 29.98 1015 10 16 0.00 0.00

Powered by AerisWeather